カタログに戻る

STARLINK-37609

運用中通信SSO
NORAD 69036·PAYLOAD·🇺🇸 United States

打ち上げ May 6, 2026 から Vandenberg Space Force Base

Loading…

次のパス (今後24時間)

TLE

最新Source: CelesTrak SupGP

元期: Sep 14, 2026, 15:34 UTC

1 69036C 26101M   26257.64909722 -.00020945  00000+0 -65023-3 0  2572
2 69036  97.2843 111.2404 0002085  87.6436 279.2666 15.33446032    11

AllMySatでSTARLINK-37609をリアルタイム追跡

Download on the App Store